CAPE
55 47 8 0 0 29 12 270 198 202 0 7 459 293 319 38 322 446 157 759 482 1142 1022 853 969 853 677 566 562 1077 606 797 364 493 549 612 501 586 479 417 575 564 819
50 45 5 2 4 27 6 68 92 191 33 0 454 370 346 496 499 652 597 840 423 1190 1089 800 707 260 675 1104 1022 960 815 730 428 419 729 317 86 73 159 482 544 398 721
29 23 0 0 4 2 6 69 141 266 152 0 323 392 446 243 91 247 548 1006 866 903 1127 499 1007 615 1031 917 923 635 450 628 4 41 705 509 487 176 23 214 242 177 455
39 57 8 1 4 0 37 59 320 164 129 610 519 287 253 346 108 48 577 1034 1026 864 1227 1251 1004 583 686 549 1063 1354 883 907 587 232 575 519 703 625 87 168 77 270 468
88 78 62 40 35 0 68 36 368 306 0 283 642 440 157 375 413 613 845 974 905 1022 1118 959 1151 616 226 418 587 1006 823 978 987 515 1045 484 1343 1269 1275 84 35 204 280
193 79 84 89 60 24 72 91 308 309 107 104 530 588 225 13 21 413 361 739 937 808 771 793 1027 818 366 411 406 934 935 526 847 1120 656 1362 543 837 1237 413 116 215 255
209 91 81 165 158 80 148 131 151 469 312 145 408 410 396 94 0 253 329 615 792 981 813 790 1134 836 855 691 610 1160 938 621 220 1041 429 1067 1115 1203 1089 1258 528 350 526
319 154 136 229 222 93 119 147 76 316 556 497 286 348 478 280 459 299 147 561 478 762 934 1007 1140 1047 395 1025 892 801 807 954 102 84 301 497 728 1144 1125 932 957 1094 1171
131 331 156 176 263 103 59 161 189 263 739 530 383 531 647 641 413 139 54 583 30 433 877 994 1027 1016 956 958 1210 720 526 949 661 330 1259 314 256 321 1216 1301 1044 844 1088
52 138 29 22 180 69 127 395 550 518 705 1085 969 910 878 825 824 921 737 779 522 544 547 365 579 1002 1070 1057 1104 822 618 634 270 544 470 883 571 24 562 1493 1407 1116 878
3 3 2 31 37 0 35 223 298 471 401 887 988 1049 1093 1011 693 895 864 935 575 340 232 249 19 408 997 1200 1025 735 985 823 451 623 1342 980 1303 995 701 690 1151 1237 1430
3 0 4 0 0 0 0 1 4 45 70 294 670 853 1321 1379 1007 918 702 1343 689 634 255 0 79 345 794 1182 1067 991 575 767 851 586 774 709 1220 1470 1470 1215 860 1234 1313
1 0 0 1 1 0 0 0 0 36 19 66 162 650 1138 1432 1070 1167 1249 1446 995 588 348 66 18 414 722 1035 1264 892 1285 1110 913 814 942 583 821 675 972 918 749 1046 1251
0 0 0 0 2 4 1 3 2 3 5 0 6 154 288 558 841 1357 1776 1480 1554 1372 1018 1144 949 1092 1078 1279 1387 1144 924 1103 1210 1069 1432 1385 1022 961 1082 833 748 954 902
0 0 0 0 0 0 0 0 0 0 0 0 0 3 37 35 76 368 1018 1677 1786 1838 1694 1339 1456 1577 1195 1285 1495 1476 1095 1007 1006 1062 1253 1306 1694 1643 1464 1261 1103 1065 1117
0 0 0 0 0 0 0 0 0 0 0 0 0 0 2 27 24 4 196 1116 1392 1687 1670 1547 1515 1280 1710 1267 1139 1434 1338 1363 1183 892 762 1157 1227 1515 1897 1584 1502 1431 1195
0 0 0 0 0 0 0 0 0 0 0 0 0 0 0 0 1 54 75 305 1070 1315 1474 1614 1840 1493 1494 1507 1351 996 1368 1444 1465 1214 1144 1258 1214 1080 1422 1266 1245 1078 966
0 0 0 0 0 0 0 0 0 0 0 0 0 0 0 0 0 15 43 35 216 643 1348 1278 1378 1551 1876 1783 1335 971 763 815 1377 1870 1800 1645 1378 1178 1171 1476 1524 1266 1005
0 0 0 0 0 0 0 0 0 0 0 0 0 0 0 0 0 0 0 0 0 13 253 910 1097 1258 1347 1390 1683 1537 1037 889 789 817 1091 1527 1449 1430 1355 1315 1419 1663 1662
0 0 0 0 0 0 0 0 0 0 0 0 0 0 0 0 0 0 0 0 0 0 0 65 274 969 1084 1242 1280 1267 1115 1118 1077 982 881 740 924 1116 1292 1321 1366 1396 1256
0 0 0 0 0 0 0 0 0 0 0 0 0 0 0 0 0 0 0 0 0 0 0 0 0 12 507 1082 1088 1042 1174 1315 1072 1164 1200 1007 824 579 461 463 748 682 715
0 0 0 0 0 0 0 0 0 0 0 0 0 0 0 0 0 0 0 0 0 0 0 0 0 0 8 325 732 767 607 1136 1248 1316 1316 1383 1128 883 650 415 393 370 341
0 0 0 0 0 0 0 0 0 0 0 0 0 0 0 0 0 0 0 0 0 0 0 0 0 0 0 0 841 920 691 400 430 441 831 812 734 905 874 484 357 141 122
0 0 0 0 0 0 0 0 0 0 0 0 0 0 0 0 0 0 0 0 0 0 0 0 0 0 0 0 46 0 115 21 0 0 7 288 369 532 837 832 647 335 182
0 0 0 0 0 0 0 0 0 0 0 0 0 0 0 0 0 0 0 0 0 0 0 0 0 0 0 0 0 0 0 0 0 0 0 0 220 610 801 935 982 944 524
0 0 0 0 0 0 0 0 0 0 0 0 0 0 0 0 0 0 0 0 0 0 0 0 0 0 0 0 0 0 0 0 0 0 0 0 0 393 996 1038 1060 981 933
CIN
-15 -23 -35 -0 -0 -67 -51 -12 -23 -35 -0 -3 -15 -30 -39 -42 -51 -64 -83 -36 -28 -14 -18 -20 -19 -24 -34 -39 -25 -22 -21 -19 -39 -21 -27 -31 -41 -36 -56 -76 -61 -113 -119
-21 -27 -30 -57 -67 -78 -29 -25 -26 -35 -35 -0 -21 -28 -34 -34 -41 -34 -51 -37 -33 -19 -24 -15 -20 -62 -29 -24 -21 -26 -21 -25 -37 -14 -28 -28 -85 -69 -89 -81 -78 -123 -132
-23 -26 -7 -0 -65 -24 -44 -45 -56 -35 -51 -0 -19 -23 -30 -52 -50 -47 -27 -21 -23 -19 -17 -20 -21 -24 -27 -21 -23 -28 -24 -20 -20 -54 -28 -17 -10 -57 -165 -106 -118 -150 -160
-39 -27 -29 -11 -54 -0 -91 -54 -43 -75 -58 -21 -12 -22 -24 -30 -53 -62 -39 -18 -18 -16 -14 -11 -18 -23 -28 -30 -20 -20 -28 -34 -29 -69 -33 -40 -33 -14 -92 -104 -178 -131 -137
-35 -21 -21 -40 -88 -2 -79 -81 -37 -45 -0 -27 -9 -15 -40 -53 -55 -44 -22 -13 -17 -14 -10 -10 -8 -23 -62 -40 -31 -19 -21 -27 -35 -51 -25 -53 -26 -29 -15 -96 -151 -150 -185
-31 -33 -39 -41 -57 -65 -70 -72 -50 -37 -47 -35 -20 -9 -32 -74 -12 -46 -48 -31 -21 -9 -5 -5 -11 -29 -38 -30 -33 -28 -32 -38 -36 -28 -48 -43 -50 -23 -34 -57 -98 -104 -146
-62 -54 -26 -30 -57 -53 -110 -98 -61 -27 -30 -29 -25 -26 -38 -79 -0 -56 -52 -27 -26 -16 -19 -16 -12 -30 -32 -29 -30 -17 -26 -34 -50 -33 -56 -53 -63 -63 -43 -38 -60 -78 -102
-37 -49 -28 -38 -39 -69 -89 -108 -71 -53 -31 -25 -35 -32 -21 -64 -51 -65 -67 -60 -46 -23 -27 -18 -8 -18 -32 -14 -18 -20 -27 -28 -85 -84 -48 -55 -62 -62 -57 -42 -30 -10 -24
-107 -77 -53 -73 -37 -63 -73 -86 -81 -72 -39 -35 -39 -32 -22 -28 -49 -69 -77 -54 -109 -43 -45 -39 -18 -13 -23 -19 -10 -18 -26 -32 -40 -44 -37 -76 -87 -79 -52 -49 -49 -51 -24
-212 -211 -170 -208 -96 -85 -42 -42 -65 -69 -61 -35 -30 -28 -29 -24 -24 -32 -30 -31 -56 -73 -61 -80 -79 -28 -17 -17 -17 -20 -22 -29 -59 -41 -53 -48 -63 -57 -91 -46 -56 -61 -56
-0 -0 -44 -162 -262 -22 -90 -69 -61 -28 -23 -47 -31 -24 -32 -32 -28 -14 -17 -21 -57 -94 -99 -83 -47 -104 -26 -18 -16 -20 -15 -26 -30 -27 -19 -30 -50 -44 -62 -83 -51 -45 -50
-0 -0 -0 -0 -14 -0 -6 -8 -5 -127 -111 -76 -27 -14 -37 -24 -25 -28 -37 -18 -37 -64 -91 -0 -109 -113 -42 -18 -11 -18 -26 -26 -21 -30 -28 -25 -29 -45 -43 -54 -64 -57 -59
-0 -0 -0 -0 -0 -0 -0 -0 -44 -139 -145 -121 -98 -30 -11 -16 -14 -17 -23 -22 -37 -63 -95 -135 -32 -64 -52 -47 -13 -21 -13 -21 -20 -17 -21 -36 -35 -41 -41 -46 -74 -48 -58
-0 -0 -0 -0 -0 -0 -0 -0 -0 -36 -95 -0 -59 -111 -100 -52 -30 -10 -20 -30 -31 -21 -44 -46 -42 -41 -38 -17 -11 -24 -30 -23 -24 -27 -9 -8 -15 -22 -24 -41 -57 -53 -58
-0 -0 -0 -0 -0 -0 -0 -0 -0 -0 -0 -0 -15 -45 -149 -200 -183 -96 -12 -12 -15 -21 -19 -21 -16 -9 -10 -15 -17 -19 -37 -35 -37 -34 -27 -22 -10 -9 -11 -14 -29 -31 -41
-0 -0 -0 -0 -0 -0 -0 -0 -0 -0 -0 -0 -0 -0 -180 -189 -198 -103 -60 -4 -6 -7 -8 -17 -13 -15 -11 -26 -25 -23 -24 -29 -33 -35 -57 -37 -25 -15 -20 -17 -14 -20 -22
-0 -0 -0 -0 -0 -0 -0 -0 -0 -0 -0 -0 -0 -0 -0 -0 -37 -152 -64 -127 -23 -3 -1 -4 -4 -17 -16 -20 -32 -43 -18 -19 -19 -25 -28 -26 -29 -27 -16 -19 -26 -37 -45
-0 -0 -0 -0 -0 -0 -0 -0 -0 -0 -0 -0 -0 -0 -0 -0 -0 -84 -201 -244 -155 -65 -5 -3 -6 -4 -3 -6 -19 -38 -48 -37 -22 -12 -15 -13 -21 -27 -30 -22 -17 -32 -49
-0 -0 -0 -0 -0 -0 -0 -0 -0 -0 -0 -0 -0 -0 -0 -0 -0 -0 -0 -0 -0 -31 -99 -30 -16 -7 -15 -17 -7 -15 -38 -48 -49 -42 -36 -24 -24 -18 -22 -23 -25 -21 -28
-0 -0 -0 -0 -0 -0 -0 -0 -0 -0 -0 -0 -0 -0 -0 -0 -0 -0 -0 -0 -0 -0 -0 -169 -112 -28 -21 -24 -18 -15 -34 -40 -39 -52 -48 -58 -53 -49 -30 -18 -21 -23 -58
-0 -0 -0 -0 -0 -0 -0 -0 -0 -0 -0 -0 -0 -0 -0 -0 -0 -0 -0 -0 -0 -0 -0 -0 -0 -109 -78 -37 -40 -41 -21 -25 -62 -35 -37 -59 -71 -87 -100 -101 -62 -94 -92
-0 -0 -0 -0 -0 -0 -0 -0 -0 -0 -0 -0 -0 -0 -0 -0 -0 -0 -0 -0 -0 -0 -0 -0 -0 -0 -82 -68 -33 -40 -67 -24 -14 -14 -10 -6 -24 -63 -94 -112 -131 -153 -142
-0 -0 -0 -0 -0 -0 -0 -0 -0 -0 -0 -0 -0 -0 -0 -0 -0 -0 -0 -0 -0 -0 -0 -0 -0 -0 -0 -0 -10 -22 -61 -122 -129 -129 -70 -62 -67 -32 -40 -118 -142 -275 -325
-0 -0 -0 -0 -0 -0 -0 -0 -0 -0 -0 -0 -0 -0 -0 -0 -0 -0 -0 -0 -0 -0 -0 -0 -0 -0 -0 -0 -72 -0 -94 -123 -0 -0 -35 -146 -146 -126 -81 -78 -131 -215 -244
-0 -0 -0 -0 -0 -0 -0 -0 -0 -0 -0 -0 -0 -0 -0 -0 -0 -0 -0 -0 -0 -0 -0 -0 -0 -0 -0 -0 -0 -0 -0 -0 -0 -0 -0 -0 -169 -90 -96 -85 -87 -83 -161
-0 -0 -0 -0 -0 -0 -0 -0 -0 -0 -0 -0 -0 -0 -0 -0 -0 -0 -0 -0 -0 -0 -0 -0 -0 -0 -0 -0 -0 -0 -0 -0 -0 -0 -0 -0 -0 -89 -35 -70 -82 -98 -104
Wind_Speed
9 7 10 9 10 7 10 6 15 15 16 17 16 21 22 23 23 22 21 22 22 23 22 21 23 20 24 23 24 23 21 18 18 15 14 19 20 23 23 25 22 24 24
17 10 13 11 12 10 12 5 12 13 15 17 15 19 21 21 22 22 21 22 22 23 23 21 23 20 22 23 20 17 17 15 19 17 18 19 19 19 18 27 24 22 24
19 12 15 15 13 12 12 9 14 12 15 14 4 7 6 6 22 22 21 22 21 24 22 22 21 24 19 22 19 17 16 16 17 15 17 20 22 21 18 21 23 22 24
15 10 14 15 13 11 10 9 12 14 17 6 5 13 22 8 21 21 21 23 20 22 21 22 11 2 18 22 20 20 13 13 13 14 19 19 15 20 22 20 20 21 22
8 17 10 14 11 11 12 11 9 13 19 18 9 18 11 16 14 14 21 16 18 20 21 23 12 11 18 17 18 19 13 13 12 11 14 17 10 12 18 24 21 20 21
15 10 11 13 14 14 9 10 7 11 18 23 9 8 10 5 8 11 7 12 17 19 21 21 15 19 21 20 22 21 15 15 13 12 11 9 13 12 14 21 22 24 23
16 20 10 13 10 17 12 13 8 8 11 19 10 4 2 14 5 23 16 15 16 20 20 21 17 17 22 23 23 22 20 19 17 15 15 12 13 13 15 13 21 23 20
23 11 11 12 16 14 13 13 11 7 8 8 9 20 0 4 18 18 9 22 11 15 20 19 19 18 18 22 23 23 24 23 22 20 19 17 17 15 14 16 11 16 17
16 15 13 20 12 12 11 12 7 6 7 8 7 12 22 6 10 19 5 10 9 8 7 10 17 18 16 19 21 24 24 25 24 24 21 22 21 18 16 16 14 14 16
12 14 20 17 19 23 24 11 9 6 8 10 8 7 14 4 2 5 18 19 3 7 6 16 17 21 18 14 20 22 24 25 25 26 26 25 25 24 20 18 17 17 18
13 12 15 13 14 17 15 16 20 21 7 8 8 8 11 17 21 17 19 2 4 7 17 21 17 22 21 17 17 22 23 23 25 24 27 24 25 25 24 23 21 20 18
12 11 12 8 15 16 14 15 14 14 18 24 28 8 9 9 9 13 19 0 6 16 21 24 0 23 16 18 11 21 24 24 25 25 27 28 25 25 25 25 26 25 23
10 10 9 11 10 12 12 20 18 14 20 19 22 27 16 11 9 7 14 27 3 11 8 2 15 17 28 25 19 21 24 25 25 25 27 28 28 30 29 29 29 28 28
10 9 10 11 10 7 4 14 12 12 15 19 21 23 22 23 23 15 6 4 7 8 10 8 30 27 23 23 26 20 21 26 26 27 26 27 28 29 29 30 30 31 32
10 10 9 10 10 8 10 11 15 17 20 18 23 23 23 22 25 22 28 22 19 17 29 28 26 30 31 31 28 23 23 22 27 27 28 29 29 28 29 30 30 29 30
8 9 9 9 9 8 10 12 14 15 15 14 16 19 21 19 27 25 33 26 31 31 28 27 24 30 29 33 32 31 29 26 26 28 29 26 30 31 31 18 11 7 20
7 8 9 10 10 11 11 13 14 14 14 13 16 19 21 19 23 19 28 26 28 33 31 30 29 35 31 34 35 34 35 33 27 28 30 31 32 32 33 34 27 22 22
8 9 10 10 11 12 14 13 14 14 14 14 15 16 21 21 21 21 24 25 25 27 28 31 32 35 35 35 39 39 35 34 34 32 15 24 36 35 35 35 34 30 30
10 11 13 12 13 15 15 16 16 15 17 17 18 18 20 22 24 24 26 27 28 29 28 29 31 35 37 37 39 39 39 39 40 38 36 35 35 32 39 39 38 37 18
12 14 15 15 16 19 19 19 20 19 20 21 21 22 23 23 25 27 27 30 30 33 32 33 32 33 36 36 38 38 39 41 41 38 40 42 38 33 29 33 40 43 41
15 15 16 18 19 20 20 21 22 24 24 24 24 25 25 27 27 28 29 30 32 32 33 35 35 35 35 37 38 37 38 41 39 40 40 37 37 40 38 31 35 42 42
17 16 17 19 20 21 22 23 25 26 27 28 28 28 28 28 29 31 31 32 32 33 34 35 36 35 35 36 38 39 38 39 40 41 41 39 37 36 38 36 29 21 22
18 19 21 22 22 23 22 24 26 26 28 29 29 31 31 31 31 32 32 33 33 34 34 34 35 36 36 36 33 33 34 35 38 40 42 44 43 43 39 37 38 36 35
19 20 22 22 23 23 24 25 26 27 28 30 31 32 32 33 33 33 32 33 33 35 35 35 35 36 38 34 29 30 31 33 35 37 38 40 43 44 41 40 37 35 34
18 18 19 21 22 23 23 24 26 27 29 30 31 32 33 34 35 35 36 37 37 37 40 40 41 41 41 41 40 39 41 41 41 43 41 41 39 40 39 39 39 37 35
14 16 19 19 20 22 24 25 26 27 29 30 31 32 33 35 36 38 39 37 40 42 44 45 44 45 45 46 46 47 44 43 42 37 37 41 40 39 37 36 35 33 33
Wind_Direction
133 152 127 128 125 110 111 79 116 115 112 120 108 124 132 142 154 156 163 161 170 163 160 166 137 177 161 158 148 153 155 177 171 174 190 176 184 174 168 163 167 157 153
155 146 138 135 137 127 122 115 121 118 119 124 116 129 136 173 160 157 159 161 151 156 163 131 146 129 163 173 192 199 192 193 167 174 168 159 176 192 190 163 169 167 161
159 160 150 146 144 138 132 133 132 124 126 125 55 333 21 338 154 154 154 159 146 161 178 132 128 157 195 179 205 210 210 195 190 189 182 168 161 173 192 183 182 181 166
160 183 158 151 150 148 142 136 140 139 139 122 87 114 155 250 202 164 139 143 132 155 192 183 51 349 213 182 192 190 237 226 220 208 169 181 205 176 165 193 191 188 178
199 166 185 158 155 152 152 145 145 149 152 146 278 143 109 253 272 259 145 110 117 138 148 172 76 266 230 228 223 205 252 242 237 245 226 194 246 232 195 164 193 199 187
177 188 194 171 162 158 156 159 164 158 157 161 136 118 121 82 299 273 280 85 113 133 144 144 102 134 207 226 209 210 242 245 249 260 257 289 230 243 219 198 194 178 183
177 175 199 186 184 164 163 157 161 168 162 160 152 161 329 265 319 222 263 117 119 148 147 144 121 121 177 193 217 219 239 239 249 259 252 259 241 257 227 242 212 187 203
248 180 192 182 172 168 167 163 159 178 184 180 169 160 291 294 256 139 291 175 104 125 145 142 143 139 137 165 198 215 222 225 233 246 250 251 242 254 262 234 270 240 235
263 259 242 255 236 183 179 167 169 198 213 221 209 163 162 137 133 155 94 113 101 86 54 81 140 145 133 154 169 195 216 216 229 227 246 243 244 244 266 250 267 272 251
271 270 255 263 261 255 251 233 232 221 226 242 232 182 160 225 180 292 166 160 19 72 66 137 135 164 152 120 160 185 200 215 212 212 227 237 227 236 258 268 279 270 268
291 273 264 260 283 272 265 263 256 257 233 220 232 240 260 262 254 263 262 28 92 303 155 162 146 177 170 146 148 180 191 204 199 212 228 244 239 247 255 259 268 278 285
297 293 293 295 275 268 262 271 259 273 272 262 255 215 246 256 266 268 168 117 133 151 171 196 200 177 152 153 124 177 194 206 196 211 224 232 247 247 257 260 260 268 278
310 300 303 308 317 272 280 264 266 276 273 280 272 259 263 260 262 256 266 237 126 148 142 327 154 167 214 198 172 182 200 210 199 226 228 238 242 240 248 252 256 265 269
329 318 303 305 310 329 304 291 304 281 276 290 281 271 266 265 264 267 246 212 173 158 155 285 236 234 186 189 205 182 189 212 206 223 227 217 228 233 240 256 260 265 265
326 336 329 310 316 320 307 318 304 315 279 281 298 284 271 272 272 273 264 267 273 275 246 250 258 243 237 239 210 193 194 193 208 210 234 247 239 222 225 248 251 268 273
343 332 331 330 325 322 337 332 337 338 309 300 306 295 283 285 275 267 275 265 256 258 262 263 271 256 260 232 223 223 212 203 205 214 218 211 226 248 233 199 192 194 302
1 354 341 337 336 333 334 342 348 348 340 345 311 299 285 289 288 275 268 273 267 258 262 264 265 249 263 256 239 243 250 235 209 213 221 226 241 236 247 248 220 212 215
342 348 343 344 344 350 352 349 349 353 350 340 333 325 282 292 288 288 281 280 277 274 271 266 265 260 259 263 252 251 265 265 265 272 210 211 244 249 250 259 257 231 229
326 325 327 335 333 336 332 337 339 343 339 335 331 319 306 303 286 286 286 286 283 282 281 278 273 266 262 263 262 263 263 265 262 266 271 272 274 280 246 260 263 275 225
319 314 318 322 322 320 320 319 320 330 326 327 325 319 315 314 305 300 297 290 288 279 280 278 278 275 271 270 267 271 271 268 269 275 272 268 275 281 285 282 275 254 257
306 312 314 314 312 315 315 310 311 311 317 318 317 315 313 307 305 303 302 299 291 288 284 278 279 277 277 275 273 274 274 272 276 276 277 280 279 277 280 284 283 242 280
300 306 309 310 313 315 310 308 307 309 309 308 308 309 308 308 306 303 300 298 296 296 291 284 282 281 281 279 277 276 276 277 277 277 277 279 281 281 280 282 284 249 280
296 302 305 305 309 311 310 307 307 309 309 308 307 305 303 303 303 302 300 298 297 293 291 294 289 286 286 284 285 285 283 286 285 282 279 276 277 277 281 283 283 287 288
297 304 304 304 306 311 311 310 310 312 310 306 305 306 304 303 303 301 301 299 298 294 292 293 293 291 287 290 294 294 292 292 293 291 288 286 280 277 279 281 284 285 286
300 305 307 307 308 312 313 315 315 315 309 307 306 305 304 304 302 300 299 296 295 294 292 291 289 288 286 284 287 288 288 289 291 288 288 287 287 282 279 280 281 283 285
302 307 308 308 311 313 314 316 319 319 315 311 309 308 307 304 303 301 298 300 297 294 290 288 288 287 285 285 283 281 285 288 288 291 289 282 284 282 282 283 284 284 284